Regional Weather Roundup
Issued by NWS

Home | Current Version | Previous Version | Graphics & Text | Print | Product List | Glossary On
Versions: 1 2 3 4 5 6 7 8 9 10 11 12 13 14 15 16 17 18 19 20 21 22 23 24 25 26 27 28 29 30 31 32 33 34 35 36 37 38 39 40 41 42 43 44 45 46 47 48 49 50
798
ASUS45 KCYS 152310
RWRWY

WYOMING REGIONAL WEATHER ROUNDUP
NATIONAL WEATHER SERVICE CHEYENNE WY
400 PM MST MON JAN 15 2018

NOTE:  "FAIR" INDICATES FEW OR NO CLOUDS BELOW 12,000 FEET
WITH NO SIGNIFICANT WEATHER AND/OR OBSTRUCTIONS TO VISIBILITY.

WYZ001-160000-
YELLOWSTONE NATIONAL PARK

CITY           SKY/WX    TMP DP  RH WIND       PRES   REMARKS
LK YELLOWSTONE   N/A     23  15  71 CALM      30.36S
W YELLOWSTONE  NOT AVBL

$$
WYZ002>013-054>058-071-098>099-160000-
NORTHERN WYOMING

CITY           SKY/WX    TMP DP  RH WIND       PRES   REMARKS
JACKSON        CLOUDY    25  21  86 CALM      30.37S FOG
CODY           FAIR      24  16  71 NE3       30.49S
GREYBULL       FAIR      22   8  55 CALM      30.56R
WORLAND        FAIR      17   9  70 E5        30.55R WCI  10
SHERIDAN       FAIR       3  -3  76 NW6       30.59F WCI  -8
BUFFALO        FAIR       9   0  67 SE5       30.52S WCI   1
GILLETTE       FAIR       0  -6  76 CALM      30.57F
HULETT         FAIR       1  -6  71 MISG      30.59F
NEWCASTLE      FAIR       0  -8  71 NW9       30.58R WCI -16

$$
WYZ014>020-022>026-101>103-160000-
CENTRAL WYOMING

CITY           SKY/WX    TMP DP  RH WIND       PRES   REMARKS
BIG PINEY      CLOUDY    29  21  72 SW5       30.38R WCI  24
PINEDALE       CLOUDY    28  19  69 SE3       30.39R
DUBOIS         FAIR      23  19  86 S6        30.36S WCI  16
LANDER         CLOUDY    24  18  77 SE6       30.45R WCI  17
RIVERTON       FAIR      24  11  57 E5        30.47R WCI  18
CASPER         FAIR      16   5  62 CALM      30.49S
DOUGLAS        FAIR      14  -4  44 N13       30.53R WCI   0

$$
WYZ021-027>030-104>119-160000-
SOUTHERN WYOMING

CITY           SKY/WX    TMP DP  RH WIND       PRES   REMARKS
EVANSTON       FAIR      36  24  62 E13       30.31R WCI  27
FORT BRIDGER   FAIR      35  22  58 E12       30.36S WCI  27
ROCK SPRINGS   FAIR      28  14  55 E13       30.38R WCI  17
DIXON            N/A     31   2  28 N9        30.39F WCI  23
RAWLINS        FAIR      26   2  35 N7        30.39R WCI  18
SARATOGA       FAIR      23  -8  25 N9        30.38S WCI  13
LARAMIE        FAIR      19  -2  39 N17       30.34R WCI   4
CHEYENNE       FAIR      11  -2  56 N21G26    30.39R WCI  -8
TORRINGTON     FAIR      14   0  53 N10G20    30.55R WCI   1

$$




USA.gov is the U.S. government's official web portal to all federal, state and local government web resources and services.